Regional Weather Roundup
Issued by NWS Pendleton, OR

Home | Current Version | Previous Version | Text Only | Print | Product List | Glossary On
Versions: 1 2 3 4 5 6 7 8 9 10 11 12 13 14 15 16 17 18 19 20 21 22 23 24 25 26 27 28 29 30 31 32 33 34 35 36 37 38 39 40 41 42 43 44 45 46 47 48 49 50
000
ASUS46 KPDT 301610
RWRPDT
PENDLETON REGIONAL WEATHER ROUNDUP
NATIONAL WEATHER SERVICE PENDLETON OREGON
900 AM PDT SUN AUG 30 2015

NOTE: FAIR INDICATES FEW OR NO CLOUDS BELOW 12,000 FEET WITH NO
SIGNIFICANT WEATHER AND/OR OBSTRUCTIONS TO VISIBILITY.

# INDICATES UNOFFICIAL STATION AND DATA

WAZ520-301710-
EAST SLOPES OF WASHINGTON CASCADES

CITY            SKY/WX      TMP DP  RH  WIND    PRES   REMARKS
#BULLFROG 2SW   N/A         48  46  93  W2      27.51R
#BUMPING DAM    N/A         46  N/A N/A SW6     N/A
#CLE ELUM HS    N/A         50  47  89  W2      29.83R
#CLE ELUM LAKE  N/A         47  44  89  CALM    29.79R
#CLIFFDEL 2NW   N/A         49  48  96  CALM    N/A
#EASTON DOT     N/A         47  42  83  CALM    N/A
#GLENWOOD       N/A         53  51  93  S6      29.86R
#MANASTASH CYN  N/A         51  47  86  CALM    29.85R
#NELSON         N/A         50  48  93  CALM    29.83R
#NELSON 3SW     N/A         47  45  93  CALM    29.99R
#NILE           N/A         53  51  93  CALM    29.08R
#PEOH POINT     N/A         44  44  100 W5      N/A
#RONALD 2NW     N/A         50  -5  10  N1      29.78R
#SNOWDEN        N/A         50  45  83  CALM    N/A
#TEANAWAY 4NE   N/A         52  52  100 CALM    N/A
#TROUT LAKE 1NE N/A         52  51  96  CALM    29.88R
$$

WAZ521-301710-
SIMCOE HIGHLANDS

CITY            SKY/WX      TMP DP  RH  WIND    PRES   REMARKS
#BICKLETON HS   N/A         52  46  80  W15     N/A
#SATUS PASS DOT N/A         51  47  86  CALM    N/A
#CENTERVILLE 4W N/A         57  48  72  CALM    29.68R
#CENTERVILLE 1SWN/A         57  48  72  W12     29.84R
#GOLDENDALE     N/A         55  51  86  W7      N/A
#GOLDENDALE 1NE N/A         57  47  69  CALM    N/A
#GOLDENDALE 5WNWN/A         56  50  80  W10     29.85R
#GOODNOE HILLS  N/A         60  53  78  W12     N/A
#LYLE 6NE       N/A         55  51  86  SW5     29.84R
$$

WAZ026-301710-
KITTITAS VALLEY

CITY            SKY/WX      TMP DP  RH  WIND    PRES   REMARKS
ELLENSBURG AP   LGT RAIN    58  50  75  NW18G25 29.85R
YTC-OPS AREA    PTCLDY      52  46  80  S24G39  29.81R
#ELLENSBURG CWU N/A         56  52  86  W1      29.75R
#ELLENSBURG 3NE N/A         55  51  86  N5      29.86R
#ELLENSBURG 1E  N/A         56  51  83  CALM    N/A
#KITTITAS 4N    N/A         57  52  83  N1      29.85R
#KITTITAS 3S    N/A         56  53  90  CALM    29.78R
#THORP 6N       N/A         51  48  89  W9      29.80R
$$

WAZ027-301710-
YAKIMA VALLEY

CITY            SKY/WX      TMP DP  RH  WIND    PRES   REMARKS
SUNNYSIDE AP    CLOUDY      61  49  65  SW6     29.86R
YAKIMA AIRPORT  MOCLDY      63  49  60  W8      29.86R
YAKIMA-VAGABOND LGT RAIN    59  52  78  S2      29.85R
#DONALD 2NE     N/A         63  41  44  S1      28.71R
#GRANDVIEW      N/A         63  47  56  W3      29.85R
#MABTON         N/A         64  49  58  SW9     29.86R
#MOXEE 2E       N/A         61  36  39  S17     29.81R
#NACHES 2SW     N/A         56  54  93  SW1     29.85R
#TERRACE HTS    N/A         59  51  75  CALM    29.78R
#TOPPENISH      N/A         64  48  56  SW7     29.75R
#WAPATO 4NE     N/A         63  41  44  S1      28.71R
#W YAKIMA       N/A         59  52  78  N1      29.81R
#WHITE SWAN 5E  N/A         62  50  65  W7      29.83R
#WILEY CITY 3W  N/A         59  45  60  CALM    29.82R
$$

WAZ028-301710-
LOWER COLUMBIA BASIN...WASHINGTON

CITY            SKY/WX      TMP DP  RH  WIND    PRES   REMARKS
PASCO           CLOUDY      66  51  58  W8      29.87R
#BENTON CITY    N/A         63  49  60  SW10G28 29.74R
#CONNELL 5N     N/A         61  54  78  S2      29.81R
#CONNELL 5NW    N/A         61  53  75  S7      29.78R
#ELTOPIA 6NW    N/A         61  54  78  SW6     28.82R
#KAHLOTUS       N/A         60  51  72  W10     29.81S
#KENNEWICK      N/A         48  46  93  W2      27.51R
#KENNEWICK 3S   N/A         63  51  65  W3      29.83S
#PATERSON       N/A         62  52  70  W3      29.85R
#PROSSER DOT    N/A         67  48  50  SW8     N/A
#PROSSER        N/A         64  45  50  W12     29.83R
#SAGEMOOR 2W    N/A         61  56  84  S5      29.68R
#TOUCHET 2S     N/A         56  48  74  W1      29.83R
#WEST PASCO     N/A         66  53  63  W5      29.83R
$$

WAZ029-301710-
FOOTHILLS OF THE BLUES...WASHINGTON

CITY            SKY/WX      TMP DP  RH  WIND    PRES   REMARKS
WALLA WALLA AP  CLOUDY      70  44  39  SW10    29.88R
#DAYTON SCHOOL  N/A         65  41  41  N2      29.88R
#LOWDEN 2SE     N/A         58  51  77  W1      29.84R
#PLEASANT VIEW 1N/A         61  47  60  CALM    29.85R
#PRESCOTT       N/A         59  49  69  CALM    29.84R
#SUDBURY        N/A         63  N/A N/A CALM    N/A
#WHITMAN COLLEGEN/A         67  48  50  S5      29.87R
#WAITSBURG 8N   N/A         64  26  23  S13     29.76R
#WALLA WALLA U  N/A         66  50  56  CALM    29.82R
#WHITMAN MISSIONN/A         61  52  72  NW2     29.86R
$$

WAZ030-301710-
BLUE MOUNTAINS...WASHINGTON

CITY            SKY/WX      TMP DP  RH  WIND    PRES   REMARKS
#SKI BLUEWOOD   N/A         54  40  59  N2      29.93S
$$

ORZ009-041-WAZ024-301710-
COLUMBIA RIVER GORGE

CITY            SKY/WX      TMP DP  RH  WIND    PRES   REMARKS
THE DALLES AP   CLOUDY      64  50  60  SE5     29.89R
#ARLINGTON AIRPON/A         60  53  78  W9      29.82S
#CELILO DOT     N/A         64  53  67  SW3     N/A
#MARYHILL       N/A         59  51  75  CALM    N/A
#MOSIER 1S      N/A         57  53  86  N2      29.93R
#RUFUS DOT      N/A         64  53  67  N2      N/A

$$

ORZ510-301710-
NORTH CENTRAL OREGON

CITY            SKY/WX      TMP DP  RH  WIND    PRES   REMARKS
#CHENOWITH 1W   N/A         56  48  74  W20     N/A
#DUFUR 9E       N/A         57  45  64  SW23    29.89R
#GRASS VALLEY 1SN/A         56  45  66  SW18G30 29.91R
#KENT DOT       N/A         53  47  80  N8      N/A
#MAUPIN SCHOOL  N/A         63  51  65  CALM    29.93R
#MORO SCHOOL    N/A         58  53  83  SW7     29.92R
#SHANIKO 5WSW   N/A         52  46  80  W5      N/A
#SHANIKO 4NW    N/A         51  46  83  W8      29.95R
#TYGH VALLEY 2NEN/A         61  47  60  W7      29.88R
#WAPANITIA AIRPON/A         58  47  67  CALM    29.89R
#WASCO 5NE      N/A         57  52  83  N3      29.86R
$$

ORZ511-301710-
CENTRAL OREGON

CITY            SKY/WX      TMP DP  RH  WIND    PRES   REMARKS
BEND AIRPORT    PTCLDY      57  45  64  SW16    29.99R
PRINEVILLE AP   CLOUDY      61  43  51  S14     29.97R
REDMOND AIRPORT CLOUDY      57  46  67  N14     29.98R
#BEND 1SW       N/A         56  48  74  W3      N/A
#BEND-AWBREY    N/A         57  47  69  SW7     29.84R
#BEND-KIM LN    N/A         56  48  74  S3      29.95R
#CULVER         N/A         58  45  62  SW8     29.93R
#LAKE BILLY CHINN/A         58  24  27  W5      30.00R
#MADRAS         N/A         60  46  60  W9      N/A
#POWELL BUTTE 3EN/A         59  43  55  S10     N/A
#POWELL BUTTE   N/A         59  45  60  SW9     29.60R
#PRINEVILLE 3N  N/A         61  47  60  SW13    29.83R
#WARM SPRINGS   N/A         61  49  65  CALM    29.91R

$$


ORZ509-301710-
EAST SLOPES OF OREGON CASCADES

CITY            SKY/WX      TMP DP  RH  WIND    PRES   REMARKS
#BLUE BOX PASS  N/A         46  -6  11  NW2     N/A
#CAMP SHERMAN   N/A         54  45  71  CALM    29.92R
#LA PINE 4NW    N/A         52  45  77  CALM    29.92R
#SISTERS AIRPOR N/A         56  50  80  N14G32  30.17S
#SISTERS 3N     N/A         56  44  64  SW5     29.99S
#SUNRIVER       N/A         53  48  83  S3      29.74R
#TUMALO 3W      N/A         55  45  69  N7      29.74R

$$

ORZ044-301710-
LOWER COLUMBIA BASIN...OREGON

CITY            SKY/WX      TMP DP  RH  WIND    PRES   REMARKS
HERMISTON       LGT RAIN    63  51  65  W10     29.89R
#BOARDMAN SCHOOLN/A         63  53  70  S3      29.89R
#BOARDMAN 8SW   N/A         62  55  78  SW3     29.86R
#ECHO 8SW       N/A         62  49  62  W5      29.91R
#IONE SCHOOL    N/A         61  42  50  SW5     29.88R
#IRRIGON 4NW    N/A         61  55  81  S3      N/A
#UMATILLA SCHOOLN/A         59  55  87  CALM    29.91R
#UMATILLA       N/A         61  50  67  CALM    29.80R
$$

ORZ507-301710-
NORTHERN FOOTHILLS OF THE BLUES

CITY            SKY/WX      TMP DP  RH  WIND    PRES   REMARKS
PENDLETON AIRPT MOCLDY      64  46  52  NW15    29.90R
#ADAMS 3WNW     N/A         61  47  60  W2      29.85R
#ATHENA         N/A         62  45  54  CALM    29.85R
#CAYUSE         N/A         62  46  56  NW1     29.83R
#HELIX SCHOOL   N/A         62  45  54  W6      29.85R
#HELIX 3N       N/A         63  44  50  N10     29.88R
#HELIX 6SW      N/A         64  46  52  W10     29.90R
#HOLDMAN 5SE    N/A         64  49  58  W12     29.91R
#HOLDMAN 6E     N/A         64  45  50  N12     29.65R
#M-F GROVE ELEM N/A         64  47  54  CALM    29.85R
#M-FREEWATER 5SEN/A         62  47  58  CALM    29.88R
#PENDLETON DNTN N/A         57  43  59  CALM    29.93R
#PDT AQUATIC CTRN/A         57  43  59  CALM    29.85R
#PDT SUNRIDGE   N/A         58  47  67  CALM    29.90R
#PENDLETON 7NW  N/A         62  49  62  CALM    32.07S
#TUTUILLA       N/A         59  47  64  W6      29.88R
#UMAPINE 2E     N/A         66  50  56  SW1     29.84R
#WESTON SCHOOL  N/A         66  38  36  W7      29.80R

$$

ORZ508-301710-
SOUTHERN FOOTHILLS OF THE BLUES

CITY            SKY/WX      TMP DP  RH  WIND    PRES   REMARKS
#AJAX           N/A         57  41  55  SW10    29.87R
#CONDON SCHOOL  N/A         55  48  77  W10     29.91R
#CONDON 5W      N/A         52  45  77  W9      29.93R
#FOSSIL SCHOOL  N/A         66  51  58  CALM    29.94S
#HEPPNER EOC    N/A         57  50  77  W2      29.79R
#HEPPNER 4NE    N/A         55  49  80  W7      29.84R
#LEXINGTON 2SE  N/A         61  53  75  NW1     29.88R
#OLEX 4N        N/A         59  54  83  S8      29.89R
#RUGGS 5NE      N/A         56  51  83  W12     30.07
#RUGGS 2SW      N/A         56  47  72  W9      29.86R

$$

ORZ502-503-301710-
BLUE MOUNTAINS

CITY            SKY/WX      TMP DP  RH  WIND    PRES   REMARKS
MEACHAM         PTCLDY      61  39  44  MISG    29.95R
#HEPPNER 15SE   N/A         59  42  53  CALM    29.85R
#LONG CREEK HS  N/A         59  43  55  CALM    29.91S
#PIKES PEAK     N/A         60  41  49  SW15    27.99S
#TOLLGATE       N/A         53  39  59  SW3     29.85R
#TROY SCHOOL    N/A         63  46  54  S2      29.69S
#UKIAH          N/A         45  39  79  CALM    29.91R
#WESTON 4E      N/A         61  41  48  SW6     29.77R
$$

ORZ505-301710-
JOHN DAY BASIN

CITY            SKY/WX      TMP DP  RH  WIND    PRES   REMARKS
JOHN DAY        MOCLDY      62  40  44  SW13    29.99R
#JOHN DAY KJDY  N/A         62  56  81  CALM    30.09F
#DAYVILLE SCHOOLN/A         64  41  43  S5      29.93R
#MITCHELL       N/A         61  46  58  CALM    30.11S
#MITCHELL 8NW   N/A         58  40  51  SW5     30.02R
#MONUMENT HS    N/A         56  42  59  CALM    29.94S
#SPRAY SCHOOL   N/A         58  N/A N/A CALM    N/A
$$

ORZ506-301710-
OCHOCO AND JOHN DAY HIGHLANDS

CITY            SKY/WX      TMP DP  RH  WIND    PRES   REMARKS
#PINE MTN OBS   N/A         42  40  93  SE17G32 N/A    WCI 34
#PRAIRIE CITY   N/A         61  47  60  CALM    29.92F
#SENECA         N/A         55  N/A N/A W2      N/A
#SENECA 9NW     N/A         49  40  71  CALM    29.85R
$$

ORZ049-301710-
GRANDE RONDE VALLEY

CITY            SKY/WX      TMP DP  RH  WIND    PRES   REMARKS
LA GRANDE       CLOUDY      54  37  52  CALM    29.94R
#COVE           N/A         53  46  77  CALM    29.97R
#COVE SCHOOL    N/A         53  44  71  CALM    29.97R
#COVE 6NW       N/A         49  42  77  CALM    29.91R
#ELGIN 3N       N/A         54  43  66  SW2     29.91S
#ELGIN 1E       N/A         50  41  71  CALM    N/A
#ISLAND CITY 4N N/A         58  57  96  CALM    29.93R
#LADD CYN DOT   N/A         52  42  69  CALM    N/A
#LA GRANDE ELEM N/A         57  44  62  CALM    29.96R
#UNION 1S       N/A         52  44  74  CALM    29.74R
$$

ORZ050-301710-
WALLOWA COUNTY

CITY            SKY/WX      TMP DP  RH  WIND    PRES   REMARKS
#ENTERPRISE HS  N/A         56  46  69  CALM    29.96S
#IMNAHA SCHOOL  N/A         63  47  56  SE1     29.89F
#IMNAHA 10S     N/A         58  45  62  CALM    29.92F
#JOSEPH 3N      N/A         56  43  62  SW1     29.97R
#JOSEPH 3W      N/A         59  48  67  NE1     29.81R
#LOSTINE        N/A         56  46  69  CALM    29.62R
#MT HOWARD 8000 N/A         43  34  70  S15G25  30.06F WCI 36
#PROMISE 1S     N/A         60  43  53  E2      29.91F
#WALLOWA SCHOOL N/A         53  43  69  CALM    29.91S



$$



USA.gov is the U.S. government's official web portal to all federal, state and local government web resources and services.